This is the latest recevied weather packets stored in our database for station/object WD4HMR. If no packets are shown the sender has not sent any weather packets the latest 10 day(s).
| Time | Temp. | Humidity | Pressure | Rain* | Wind** | Luminosity | Snow |
|---|---|---|---|---|---|---|---|
| 1778122677 | 18.89° C | 97% | 1010.9 hPa | 0 mm | - | - | - |
| 1778122516 | 18.89° C | 97% | 1010.9 hPa | 0 mm | - | - | - |
| 1778122097 | 18.89° C | 97% | 1010.5 hPa | 0 mm | - | - | - |
| 1778121677 | 18.89° C | 98% | 1010.3 hPa | 0 mm | - | - | - |
| 1778121421 | 18.33° C | 97% | 1010.7 hPa | 0 mm | - | - | - |
| 1778120996 | 18.89° C | 97% | 1010.9 hPa | 0 mm | - | - | - |
| 1778120576 | 18.89° C | 97% | 1010.7 hPa | 0 mm | - | - | - |
| 1778120155 | 18.89° C | 98% | 1010.5 hPa | 0 mm | - | - | - |
| 1778119735 | 18.89° C | 98% | 1010.6 hPa | 0 mm | - | - | - |
| 1778119314 | 18.89° C | 98% | 1010.5 hPa | 0 mm | - | - | - |
| 1778118894 | 18.89° C | 98% | 1010.6 hPa | 0 mm | - | - | - |
| 1778118474 | 18.89° C | 98% | 1010.5 hPa | 0 mm | - | - | - |
| 1778118054 | 18.89° C | 98% | 1010.3 hPa | 0 mm | - | - | - |
| 1778117634 | 18.89° C | 98% | 1010.4 hPa | 0 mm | - | - | - |
| 1778116914 | 19.44° C | 96% | 1011 hPa | 0 mm | - | - | - |
| 1778116494 | 20° C | 95% | 1010.7 hPa | 0 mm | - | - | - |
| 1778116073 | 21.11° C | 94% | 1011.1 hPa | 0 mm | - | - | - |
| 1778115653 | 22.22° C | 93% | 1011.5 hPa | 0 mm | - | - | - |
| 1778115232 | 22.78° C | 93% | 1010.8 hPa | 0 mm | - | - | - |
| 1778114812 | 22.78° C | 93% | 1011.1 hPa | 0 mm | - | - | - |
| 1778114392 | 22.78° C | 92% | 1011.2 hPa | 0 mm | - | - | - |
| 1778113972 | 22.78° C | 92% | 1011.4 hPa | 0 mm | - | - | - |
| 1778113552 | 22.78° C | 92% | 1011.6 hPa | 0 mm | - | - | - |
| 1778113366 | 22.78° C | 91% | 1011.6 hPa | 0 mm | - | - | - |
| 1778112946 | 22.78° C | 91% | 1011.6 hPa | 0 mm | - | - | - |
* Rain latest hour (hover to see other rain measurements)
** Current wind speed in m/s (hover to see current wind gust speed)